Year,Month,Day,Hour,Minute,Value (Times are PST for windgust in km/hr)
2002,04,30,00,00,3.20
2002,04,30,00,01,3.20
2002,04,30,00,02,3.20
2002,04,30,00,03,1.40
2002,04,30,00,04,3.20
2002,04,30,00,05,3.20
2002,04,30,00,06,0.00
2002,04,30,00,07,0.00
2002,04,30,00,08,0.00
2002,04,30,00,09,1.40
2002,04,30,00,10,0.00
2002,04,30,00,11,0.00
2002,04,30,00,12,0.00
2002,04,30,00,13,1.40
2002,04,30,00,14,0.00
2002,04,30,00,15,1.40
2002,04,30,00,16,1.40
2002,04,30,00,17,1.40
2002,04,30,00,18,0.00
2002,04,30,00,19,0.00
2002,04,30,00,20,0.00
2002,04,30,00,21,1.40
2002,04,30,00,22,1.40
2002,04,30,00,23,0.00
2002,04,30,00,24,3.20
2002,04,30,00,25,1.40
2002,04,30,00,26,1.40
2002,04,30,00,27,1.40
2002,04,30,00,28,1.40
2002,04,30,00,29,1.40
2002,04,30,00,30,3.20
2002,04,30,00,31,0.00
2002,04,30,00,32,0.00
2002,04,30,00,33,0.00
2002,04,30,00,34,1.40
2002,04,30,00,35,0.00
2002,04,30,00,36,1.40
2002,04,30,00,37,0.00
2002,04,30,00,38,0.00
2002,04,30,00,39,0.00
2002,04,30,00,40,0.00
2002,04,30,00,41,0.00
2002,04,30,00,42,0.00
2002,04,30,00,43,0.00
2002,04,30,00,44,1.40
2002,04,30,00,45,1.40
2002,04,30,00,46,1.40
2002,04,30,00,47,3.20
2002,04,30,00,48,1.40
2002,04,30,00,49,0.00
2002,04,30,00,50,0.00
2002,04,30,00,51,0.00
2002,04,30,00,52,0.00
2002,04,30,00,53,1.40
2002,04,30,00,54,1.40
2002,04,30,00,55,1.40
2002,04,30,00,56,1.40
2002,04,30,00,57,1.40
2002,04,30,00,58,0.00
2002,04,30,00,59,0.00
2002,04,30,01,00,0.00
2002,04,30,01,01,0.00
2002,04,30,01,02,1.40
2002,04,30,01,03,0.00
2002,04,30,01,04,0.00
2002,04,30,01,05,0.00
2002,04,30,01,06,0.00
2002,04,30,01,07,0.00
2002,04,30,01,08,0.00
2002,04,30,01,09,0.00
2002,04,30,01,10,0.00
2002,04,30,01,11,0.00
2002,04,30,01,12,0.00
2002,04,30,01,13,0.00
2002,04,30,01,14,0.00
2002,04,30,01,15,0.00
2002,04,30,01,16,0.00
2002,04,30,01,17,0.00
2002,04,30,01,18,0.00
2002,04,30,01,19,0.00
2002,04,30,01,20,0.00
2002,04,30,01,21,0.00
2002,04,30,01,22,0.00
2002,04,30,01,23,0.00
2002,04,30,01,24,0.00
2002,04,30,01,25,0.00
2002,04,30,01,26,0.00
2002,04,30,01,27,0.00
2002,04,30,01,28,0.00
2002,04,30,01,29,0.00
2002,04,30,01,30,0.00
2002,04,30,01,31,0.00
2002,04,30,01,32,0.00
2002,04,30,01,33,0.00
2002,04,30,01,34,0.00
2002,04,30,01,35,0.00
2002,04,30,01,36,0.00
2002,04,30,01,37,0.00
2002,04,30,01,38,0.00
2002,04,30,01,39,0.00
2002,04,30,01,40,1.40
2002,04,30,01,41,1.40
2002,04,30,01,42,3.20
2002,04,30,01,43,0.00
2002,04,30,01,44,1.40
2002,04,30,01,45,1.40
2002,04,30,01,46,3.20
2002,04,30,01,47,1.40
2002,04,30,01,48,1.40
2002,04,30,01,49,0.00
2002,04,30,01,50,1.40
2002,04,30,01,51,0.00
2002,04,30,01,52,0.00
2002,04,30,01,53,0.00
2002,04,30,01,54,1.40
2002,04,30,01,55,1.40
2002,04,30,01,56,1.40
2002,04,30,01,57,1.40
2002,04,30,01,58,1.40
2002,04,30,01,59,3.20
2002,04,30,02,00,1.40
2002,04,30,02,01,1.40
2002,04,30,02,02,3.20
2002,04,30,02,03,3.20
2002,04,30,02,04,3.20
2002,04,30,02,05,1.40
2002,04,30,02,06,1.40
2002,04,30,02,07,1.40
2002,04,30,02,08,3.20
2002,04,30,02,09,3.20
2002,04,30,02,10,1.40
2002,04,30,02,11,1.40
2002,04,30,02,12,1.40
2002,04,30,02,13,1.40
2002,04,30,02,14,1.40
2002,04,30,02,15,1.40
2002,04,30,02,16,1.40
2002,04,30,02,17,0.00
2002,04,30,02,18,0.00
2002,04,30,02,19,0.00
2002,04,30,02,20,0.00
2002,04,30,02,21,0.00
2002,04,30,02,22,0.00
2002,04,30,02,23,0.00
2002,04,30,02,24,0.00
2002,04,30,02,25,0.00
2002,04,30,02,26,0.00
2002,04,30,02,27,0.00
2002,04,30,02,28,0.00
2002,04,30,02,29,0.00
2002,04,30,02,30,1.40
2002,04,30,02,31,0.00
2002,04,30,02,32,1.40
2002,04,30,02,33,3.20
2002,04,30,02,34,3.20
2002,04,30,02,35,3.20
2002,04,30,02,36,3.20
2002,04,30,02,37,3.20
2002,04,30,02,38,1.40
2002,04,30,02,39,3.20
2002,04,30,02,40,1.40
2002,04,30,02,41,0.00
2002,04,30,02,42,0.00
2002,04,30,02,43,0.00
2002,04,30,02,44,0.00
2002,04,30,02,45,0.00
2002,04,30,02,46,0.00
2002,04,30,02,47,3.20
2002,04,30,02,48,3.20
2002,04,30,02,49,1.40
2002,04,30,02,50,1.40
2002,04,30,02,51,1.40
2002,04,30,02,52,1.40
2002,04,30,02,53,0.00
2002,04,30,02,54,0.00
2002,04,30,02,55,0.00
2002,04,30,02,56,0.00
2002,04,30,02,57,0.00
2002,04,30,02,58,0.00
2002,04,30,02,59,0.00
2002,04,30,03,00,0.00
2002,04,30,03,01,0.00
2002,04,30,03,02,0.00
2002,04,30,03,03,1.40
2002,04,30,03,04,0.00
2002,04,30,03,05,0.00
2002,04,30,03,06,0.00
2002,04,30,03,07,0.00
2002,04,30,03,08,0.00
2002,04,30,03,09,0.00
2002,04,30,03,10,0.00
2002,04,30,03,11,0.00
2002,04,30,03,12,0.00
2002,04,30,03,13,0.00
2002,04,30,03,14,0.00
2002,04,30,03,15,0.00
2002,04,30,03,16,0.00
2002,04,30,03,17,0.00
2002,04,30,03,18,0.00
2002,04,30,03,19,0.00
2002,04,30,03,20,0.00
2002,04,30,03,21,0.00
2002,04,30,03,22,0.00
2002,04,30,03,23,0.00
2002,04,30,03,24,0.00
2002,04,30,03,25,0.00
2002,04,30,03,26,0.00
2002,04,30,03,27,0.00
2002,04,30,03,28,0.00
2002,04,30,03,29,0.00
2002,04,30,03,30,0.00
2002,04,30,03,31,0.00
2002,04,30,03,32,0.00
2002,04,30,03,33,0.00
2002,04,30,03,34,0.00
2002,04,30,03,35,0.00
2002,04,30,03,36,0.00
2002,04,30,03,37,0.00
2002,04,30,03,38,0.00
2002,04,30,03,39,1.40
2002,04,30,03,40,0.00
2002,04,30,03,41,0.00
2002,04,30,03,42,0.00
2002,04,30,03,43,0.00
2002,04,30,03,44,0.00
2002,04,30,03,45,0.00
2002,04,30,03,46,0.00
2002,04,30,03,47,0.00
2002,04,30,03,48,0.00
2002,04,30,03,49,0.00
2002,04,30,03,50,0.00
2002,04,30,03,51,0.00
2002,04,30,03,52,0.00
2002,04,30,03,53,0.00
2002,04,30,03,54,0.00
2002,04,30,03,55,0.00
2002,04,30,03,56,0.00
2002,04,30,03,57,0.00
2002,04,30,03,58,0.00
2002,04,30,03,59,0.00
2002,04,30,04,00,0.00
2002,04,30,04,01,0.00
2002,04,30,04,02,0.00
2002,04,30,04,03,0.00
2002,04,30,04,04,0.00
2002,04,30,04,05,0.00
2002,04,30,04,06,0.00
2002,04,30,04,07,0.00
2002,04,30,04,08,0.00
2002,04,30,04,09,1.40
2002,04,30,04,10,0.00
2002,04,30,04,11,1.40
2002,04,30,04,12,3.20
2002,04,30,04,13,1.40
2002,04,30,04,14,1.40
2002,04,30,04,15,1.40
2002,04,30,04,16,0.00
2002,04,30,04,17,0.00
2002,04,30,04,18,0.00
2002,04,30,04,19,0.00
2002,04,30,04,20,0.00
2002,04,30,04,21,0.00
2002,04,30,04,22,0.00
2002,04,30,04,23,0.00
2002,04,30,04,24,0.00
2002,04,30,04,25,1.40
2002,04,30,04,26,1.40
2002,04,30,04,27,1.40
2002,04,30,04,28,1.40
2002,04,30,04,29,1.40
2002,04,30,04,30,4.70
2002,04,30,04,31,4.70
2002,04,30,04,32,7.90
2002,04,30,04,33,4.70
2002,04,30,04,34,4.70
2002,04,30,04,35,3.20
2002,04,30,04,36,3.20
2002,04,30,04,37,3.20
2002,04,30,04,38,1.40
2002,04,30,04,39,0.00
2002,04,30,04,40,1.40
2002,04,30,04,41,1.40
2002,04,30,04,42,0.00
2002,04,30,04,43,0.00
2002,04,30,04,44,0.00
2002,04,30,04,45,3.20
2002,04,30,04,46,1.40
2002,04,30,04,47,1.40
2002,04,30,04,48,3.20
2002,04,30,04,49,1.40
2002,04,30,04,50,1.40
2002,04,30,04,51,1.40
2002,04,30,04,52,1.40
2002,04,30,04,53,1.40
2002,04,30,04,54,3.20
2002,04,30,04,55,3.20
2002,04,30,04,56,3.20
2002,04,30,04,57,3.20
2002,04,30,04,58,3.20
2002,04,30,04,59,1.40
2002,04,30,05,00,3.20
2002,04,30,05,01,1.40
2002,04,30,05,02,1.40
2002,04,30,05,03,1.40
2002,04,30,05,04,0.00
2002,04,30,05,05,0.00
2002,04,30,05,06,0.00
2002,04,30,05,07,0.00
2002,04,30,05,08,1.40
2002,04,30,05,09,1.40
2002,04,30,05,10,1.40
2002,04,30,05,11,3.20
2002,04,30,05,12,3.20
2002,04,30,05,13,3.20
2002,04,30,05,14,4.70
2002,04,30,05,15,4.70
2002,04,30,05,16,3.20
2002,04,30,05,17,3.20
2002,04,30,05,18,3.20
2002,04,30,05,19,3.20
2002,04,30,05,20,3.20
2002,04,30,05,21,1.40
2002,04,30,05,22,1.40
2002,04,30,05,23,1.40
2002,04,30,05,24,0.00
2002,04,30,05,25,0.00
2002,04,30,05,26,0.00
2002,04,30,05,27,0.00
2002,04,30,05,28,0.00
2002,04,30,05,29,0.00
2002,04,30,05,30,0.00
2002,04,30,05,31,0.00
2002,04,30,05,32,0.00
2002,04,30,05,33,0.00
2002,04,30,05,34,0.00
2002,04,30,05,35,0.00
2002,04,30,05,36,0.00
2002,04,30,05,37,0.00
2002,04,30,05,38,0.00
2002,04,30,05,39,0.00
2002,04,30,05,40,0.00
2002,04,30,05,41,0.00
2002,04,30,05,42,0.00
2002,04,30,05,43,0.00
2002,04,30,05,44,0.00
2002,04,30,05,45,0.00
2002,04,30,05,46,0.00
2002,04,30,05,47,0.00
2002,04,30,05,48,0.00
2002,04,30,05,49,0.00
2002,04,30,05,50,0.00
2002,04,30,05,51,0.00
2002,04,30,05,52,0.00
2002,04,30,05,53,0.00
2002,04,30,05,54,0.00
2002,04,30,05,55,0.00
2002,04,30,05,56,0.00
2002,04,30,05,57,0.00
2002,04,30,05,58,1.40
2002,04,30,05,59,0.00
2002,04,30,06,00,0.00
2002,04,30,06,01,0.00
2002,04,30,06,02,0.00
2002,04,30,06,03,0.00
2002,04,30,06,04,0.00
2002,04,30,06,05,0.00
2002,04,30,06,06,0.00
2002,04,30,06,07,0.00
2002,04,30,06,08,0.00
2002,04,30,06,09,0.00
2002,04,30,06,10,0.00
2002,04,30,06,11,0.00
2002,04,30,06,12,0.00
2002,04,30,06,13,0.00
2002,04,30,06,14,0.00
2002,04,30,06,15,0.00
2002,04,30,06,16,0.00
2002,04,30,06,17,0.00
2002,04,30,06,18,0.00
2002,04,30,06,19,0.00
2002,04,30,06,20,0.00
2002,04,30,06,21,0.00
2002,04,30,06,22,0.00
2002,04,30,06,23,0.00
2002,04,30,06,24,0.00
2002,04,30,06,25,0.00
2002,04,30,06,26,0.00
2002,04,30,06,27,0.00
2002,04,30,06,28,0.00
2002,04,30,06,29,1.40
2002,04,30,06,30,1.40
2002,04,30,06,31,1.40
2002,04,30,06,32,0.00
2002,04,30,06,33,0.00
2002,04,30,06,34,0.00
2002,04,30,06,35,0.00
2002,04,30,06,36,0.00
2002,04,30,06,37,0.00
2002,04,30,06,38,0.00
2002,04,30,06,39,0.00
2002,04,30,06,40,1.40
2002,04,30,06,41,1.40
2002,04,30,06,42,1.40
2002,04,30,06,43,1.40
2002,04,30,06,44,1.40
2002,04,30,06,45,1.40
2002,04,30,06,46,1.40
2002,04,30,06,47,1.40
2002,04,30,06,48,1.40
2002,04,30,06,49,1.40
2002,04,30,06,50,0.00
2002,04,30,06,51,0.00
2002,04,30,06,52,0.00
2002,04,30,06,53,0.00
2002,04,30,06,54,0.00
2002,04,30,06,55,0.00
2002,04,30,06,56,0.00
2002,04,30,06,57,0.00
2002,04,30,06,58,0.00
2002,04,30,06,59,0.00
2002,04,30,07,00,0.00
2002,04,30,07,01,0.00
2002,04,30,07,02,0.00
2002,04,30,07,03,0.00
2002,04,30,07,04,0.00
2002,04,30,07,05,0.00
2002,04,30,07,06,0.00
2002,04,30,07,07,0.00
2002,04,30,07,08,0.00
2002,04,30,07,09,0.00
2002,04,30,07,10,1.40
2002,04,30,07,11,3.20
2002,04,30,07,12,1.40
2002,04,30,07,13,3.20
2002,04,30,07,14,4.70
2002,04,30,07,15,3.20
2002,04,30,07,16,3.20
2002,04,30,07,17,1.40
2002,04,30,07,18,0.00
2002,04,30,07,19,0.00
2002,04,30,07,20,0.00
2002,04,30,07,21,0.00
2002,04,30,07,22,0.00
2002,04,30,07,23,1.40
2002,04,30,07,24,1.40
2002,04,30,07,25,0.00
2002,04,30,07,26,1.40
2002,04,30,07,27,3.20
2002,04,30,07,28,3.20
2002,04,30,07,29,1.40
2002,04,30,07,30,1.40
2002,04,30,07,31,1.40
2002,04,30,07,32,1.40
2002,04,30,07,33,1.40
2002,04,30,07,34,1.40
2002,04,30,07,35,0.00
2002,04,30,07,36,0.00
2002,04,30,07,37,1.40
2002,04,30,07,38,1.40
2002,04,30,07,39,1.40
2002,04,30,07,40,0.00
2002,04,30,07,41,1.40
2002,04,30,07,42,3.20
2002,04,30,07,43,1.40
2002,04,30,07,44,1.40
2002,04,30,07,45,3.20
2002,04,30,07,46,3.20
2002,04,30,07,47,3.20
2002,04,30,07,48,1.40
2002,04,30,07,49,3.20
2002,04,30,07,50,4.70
2002,04,30,07,51,4.70
2002,04,30,07,52,7.90
2002,04,30,07,53,9.70
2002,04,30,07,54,7.90
2002,04,30,07,55,4.70
2002,04,30,07,56,4.70
2002,04,30,07,57,4.70
2002,04,30,07,58,3.20
2002,04,30,07,59,4.70
2002,04,30,08,00,7.90
2002,04,30,08,01,7.90
2002,04,30,08,02,9.70
2002,04,30,08,03,9.70
2002,04,30,08,04,9.70
2002,04,30,08,05,11.20
2002,04,30,08,06,11.20
2002,04,30,08,07,13.00
2002,04,30,08,08,11.20
2002,04,30,08,09,13.00
2002,04,30,08,10,11.20
2002,04,30,08,11,11.20
2002,04,30,08,12,16.20
2002,04,30,08,13,11.20
2002,04,30,08,14,16.20
2002,04,30,08,15,9.70
2002,04,30,08,16,13.00
2002,04,30,08,17,16.20
2002,04,30,08,18,13.00
2002,04,30,08,19,11.20
2002,04,30,08,20,9.70
2002,04,30,08,21,16.20
2002,04,30,08,22,16.20
2002,04,30,08,23,17.60
2002,04,30,08,24,17.60
2002,04,30,08,25,19.40
2002,04,30,08,26,17.60
2002,04,30,08,27,16.20
2002,04,30,08,28,13.00
2002,04,30,08,29,16.20
2002,04,30,08,30,16.20
2002,04,30,08,31,16.20
2002,04,30,08,32,17.60
2002,04,30,08,33,16.20
2002,04,30,08,34,17.60
2002,04,30,08,35,11.20
2002,04,30,08,36,13.00
2002,04,30,08,37,13.00
2002,04,30,08,38,16.20
2002,04,30,08,39,16.20
2002,04,30,08,40,16.20
2002,04,30,08,41,13.00
2002,04,30,08,42,13.00
2002,04,30,08,43,11.20
2002,04,30,08,44,11.20
2002,04,30,08,45,11.20
2002,04,30,08,46,7.90
2002,04,30,08,47,11.20
2002,04,30,08,48,11.20
2002,04,30,08,49,11.20
2002,04,30,08,50,13.00
2002,04,30,08,51,11.20
2002,04,30,08,52,11.20
2002,04,30,08,53,11.20
2002,04,30,08,54,11.20
2002,04,30,08,55,11.20
2002,04,30,08,56,13.00
2002,04,30,08,57,16.20
2002,04,30,08,58,13.00
2002,04,30,08,59,11.20
2002,04,30,09,00,11.20
2002,04,30,09,01,16.20
2002,04,30,09,02,9.70
2002,04,30,09,03,16.20
2002,04,30,09,04,17.60
2002,04,30,09,05,16.20
2002,04,30,09,06,11.20
2002,04,30,09,07,9.70
2002,04,30,09,08,7.90
2002,04,30,09,09,11.20
2002,04,30,09,10,11.20
2002,04,30,09,11,11.20
2002,04,30,09,12,9.70
2002,04,30,09,13,11.20
2002,04,30,09,14,11.20
2002,04,30,09,15,19.40
2002,04,30,09,16,17.60
2002,04,30,09,17,16.20
2002,04,30,09,18,11.20
2002,04,30,09,19,11.20
2002,04,30,09,20,13.00
2002,04,30,09,21,9.70
2002,04,30,09,22,13.00
2002,04,30,09,23,13.00
2002,04,30,09,24,13.00
2002,04,30,09,25,13.00
2002,04,30,09,26,11.20
2002,04,30,09,27,7.90
2002,04,30,09,28,16.20
2002,04,30,09,29,16.20
2002,04,30,09,30,16.20
2002,04,30,09,31,16.20
2002,04,30,09,32,17.60
2002,04,30,10,55,11.20
2002,04,30,10,56,11.20
2002,04,30,10,57,11.20
2002,04,30,10,58,13.00
2002,04,30,10,59,9.70
2002,04,30,11,00,7.90
2002,04,30,11,01,7.90
2002,04,30,11,02,9.70
2002,04,30,11,03,9.70
2002,04,30,11,04,7.90
2002,04,30,11,05,17.60
2002,04,30,11,06,16.20
2002,04,30,11,07,13.00
2002,04,30,11,08,11.20
2002,04,30,11,09,11.20
2002,04,30,11,10,9.70
2002,04,30,11,11,11.20
2002,04,30,11,12,13.00
2002,04,30,11,13,9.70
2002,04,30,11,14,7.90
2002,04,30,11,15,13.00
2002,04,30,11,16,11.20
2002,04,30,11,17,13.00
2002,04,30,11,18,13.00
2002,04,30,11,19,9.70
2002,04,30,11,20,11.20
2002,04,30,11,21,13.00
2002,04,30,11,22,11.20
2002,04,30,11,23,7.90
2002,04,30,11,24,7.90
2002,04,30,11,25,9.70
2002,04,30,11,26,9.70
2002,04,30,11,27,7.90
2002,04,30,11,28,16.20
2002,04,30,11,29,11.20
2002,04,30,11,30,16.20
2002,04,30,11,31,11.20
2002,04,30,11,32,7.90
2002,04,30,11,33,11.20
2002,04,30,11,34,11.20
2002,04,30,11,35,9.70
2002,04,30,11,36,9.70
2002,04,30,11,37,11.20
2002,04,30,11,38,13.00
2002,04,30,11,39,11.20
2002,04,30,11,40,9.70
2002,04,30,11,41,11.20
2002,04,30,11,42,11.20
2002,04,30,11,43,11.20
2002,04,30,11,44,11.20
2002,04,30,11,45,13.00
2002,04,30,11,46,11.20
2002,04,30,11,47,9.70
2002,04,30,11,48,9.70
2002,04,30,11,49,13.00
2002,04,30,11,50,13.00
2002,04,30,11,51,13.00
2002,04,30,11,52,17.60
2002,04,30,11,53,13.00
2002,04,30,11,54,11.20
2002,04,30,11,55,13.00
2002,04,30,11,56,16.20
2002,04,30,11,57,16.20
2002,04,30,11,58,16.20
2002,04,30,11,59,16.20
2002,04,30,12,00,13.00
2002,04,30,12,01,13.00
2002,04,30,12,02,16.20
2002,04,30,12,03,16.20
2002,04,30,12,04,19.40
2002,04,30,12,05,19.40
2002,04,30,12,06,17.60
2002,04,30,12,07,13.00
2002,04,30,12,08,13.00
2002,04,30,12,09,11.20
2002,04,30,12,10,9.70
2002,04,30,12,11,16.20
2002,04,30,12,12,20.90
2002,04,30,12,13,17.60
2002,04,30,12,14,11.20
2002,04,30,12,15,11.20
2002,04,30,12,16,11.20
2002,04,30,12,17,11.20
2002,04,30,12,18,13.00
2002,04,30,12,19,11.20
2002,04,30,12,20,11.20
2002,04,30,12,21,9.70
2002,04,30,12,22,13.00
2002,04,30,12,23,13.00
2002,04,30,12,24,17.60
2002,04,30,12,25,13.00
2002,04,30,12,26,16.20
2002,04,30,12,27,20.90
2002,04,30,12,28,16.20
2002,04,30,12,29,17.60
2002,04,30,12,30,17.60
2002,04,30,12,31,13.00
2002,04,30,12,32,13.00
2002,04,30,12,33,11.20
2002,04,30,12,34,16.20
2002,04,30,12,35,13.00
2002,04,30,12,36,9.70
2002,04,30,12,37,17.60
2002,04,30,12,38,17.60
2002,04,30,12,39,17.60
2002,04,30,12,40,13.00
2002,04,30,12,41,16.20
2002,04,30,12,42,19.40
2002,04,30,12,43,20.90
2002,04,30,12,44,16.20
2002,04,30,12,45,17.60
2002,04,30,12,46,17.60
2002,04,30,12,47,13.00
2002,04,30,12,48,17.60
2002,04,30,12,49,17.60
2002,04,30,12,50,17.60
2002,04,30,12,51,17.60
2002,04,30,12,52,17.60
2002,04,30,12,53,19.40
2002,04,30,12,54,16.20
2002,04,30,12,55,16.20
2002,04,30,12,56,13.00
2002,04,30,12,57,16.20
2002,04,30,12,58,11.20
2002,04,30,12,59,17.60
2002,04,30,13,00,16.20
2002,04,30,13,01,17.60
2002,04,30,13,02,16.20
2002,04,30,13,03,13.00
2002,04,30,13,04,16.20
2002,04,30,13,05,13.00
2002,04,30,13,06,13.00
2002,04,30,13,07,11.20
2002,04,30,13,08,13.00
2002,04,30,13,09,16.20
2002,04,30,13,10,11.20
2002,04,30,13,11,16.20
2002,04,30,13,12,11.20
2002,04,30,13,13,13.00
2002,04,30,13,14,11.20
2002,04,30,13,15,13.00
2002,04,30,13,16,17.60
2002,04,30,13,17,13.00
2002,04,30,13,18,11.20
2002,04,30,13,19,13.00
2002,04,30,13,20,16.20
2002,04,30,13,21,13.00
2002,04,30,13,22,11.20
2002,04,30,13,23,13.00
2002,04,30,13,24,13.00
2002,04,30,13,25,13.00
2002,04,30,13,26,13.00
2002,04,30,13,27,11.20
2002,04,30,13,28,16.20
2002,04,30,13,29,9.70
2002,04,30,13,30,13.00
2002,04,30,13,31,16.20
2002,04,30,13,32,16.20
2002,04,30,13,33,16.20
2002,04,30,13,34,16.20
2002,04,30,13,35,17.60
2002,04,30,13,36,16.20
2002,04,30,13,37,17.60
2002,04,30,13,38,17.60
2002,04,30,13,39,11.20
2002,04,30,13,40,13.00
2002,04,30,13,41,11.20
2002,04,30,13,42,13.00
2002,04,30,13,43,16.20
2002,04,30,13,44,16.20
2002,04,30,13,45,11.20
2002,04,30,13,46,13.00
2002,04,30,13,47,11.20
2002,04,30,13,48,13.00
2002,04,30,13,49,17.60
2002,04,30,13,50,16.20
2002,04,30,13,51,13.00
2002,04,30,13,52,11.20
2002,04,30,13,53,16.20
2002,04,30,13,54,13.00
2002,04,30,13,55,11.20
2002,04,30,13,56,9.70
2002,04,30,13,57,9.70
2002,04,30,13,58,11.20
2002,04,30,13,59,13.00
2002,04,30,14,00,13.00
2002,04,30,14,01,16.20
2002,04,30,14,02,16.20
2002,04,30,14,03,13.00
2002,04,30,14,04,9.70
2002,04,30,14,05,13.00
2002,04,30,14,06,13.00
2002,04,30,14,07,17.60
2002,04,30,14,08,17.60
2002,04,30,14,09,13.00
2002,04,30,14,10,13.00
2002,04,30,14,11,13.00
2002,04,30,14,12,13.00
2002,04,30,14,13,11.20
2002,04,30,14,14,13.00
2002,04,30,14,15,16.20
2002,04,30,14,16,13.00
2002,04,30,14,17,11.20
2002,04,30,14,18,11.20
2002,04,30,14,19,9.70
2002,04,30,14,20,13.00
2002,04,30,14,21,17.60
2002,04,30,14,22,13.00
2002,04,30,14,23,7.90
2002,04,30,14,24,16.20
2002,04,30,14,25,16.20
2002,04,30,14,26,17.60
2002,04,30,14,27,17.60
2002,04,30,14,28,19.40
2002,04,30,14,29,16.20
2002,04,30,14,30,17.60
2002,04,30,14,31,13.00
2002,04,30,14,32,16.20
2002,04,30,14,33,16.20
2002,04,30,14,34,13.00
2002,04,30,14,35,16.20
2002,04,30,14,36,13.00
2002,04,30,14,37,17.60
2002,04,30,14,38,13.00
2002,04,30,14,39,20.90
2002,04,30,14,40,19.40
2002,04,30,14,41,17.60
2002,04,30,14,42,17.60
2002,04,30,14,43,16.20
2002,04,30,14,44,16.20
2002,04,30,14,45,17.60
2002,04,30,14,46,16.20
2002,04,30,14,47,16.20
2002,04,30,14,48,19.40
2002,04,30,14,49,19.40
2002,04,30,14,50,19.40
2002,04,30,14,51,13.00
2002,04,30,14,52,16.20
2002,04,30,14,53,13.00
2002,04,30,14,54,9.70
2002,04,30,14,55,7.90
2002,04,30,14,56,11.20
2002,04,30,14,57,9.70
2002,04,30,14,58,11.20
2002,04,30,14,59,9.70
2002,04,30,15,00,13.00
2002,04,30,15,01,16.20
2002,04,30,15,02,16.20
2002,04,30,15,03,19.40
2002,04,30,15,04,16.20
2002,04,30,15,05,13.00
2002,04,30,15,06,13.00
2002,04,30,15,07,17.60
2002,04,30,15,08,16.20
2002,04,30,15,09,16.20
2002,04,30,15,10,11.20
2002,04,30,15,11,13.00
2002,04,30,15,12,9.70
2002,04,30,15,13,11.20
2002,04,30,15,14,9.70
2002,04,30,15,15,11.20
2002,04,30,15,16,11.20
2002,04,30,15,17,11.20
2002,04,30,15,18,13.00
2002,04,30,15,19,11.20
2002,04,30,15,20,9.70
2002,04,30,15,21,13.00
2002,04,30,15,22,16.20
2002,04,30,15,23,13.00
2002,04,30,15,24,11.20
2002,04,30,15,25,11.20
2002,04,30,15,26,16.20
2002,04,30,15,27,16.20
2002,04,30,15,28,13.00
2002,04,30,15,29,17.60
2002,04,30,15,30,16.20
2002,04,30,15,31,13.00
2002,04,30,15,32,11.20
2002,04,30,15,33,17.60
2002,04,30,15,34,16.20
2002,04,30,15,35,17.60
2002,04,30,15,36,11.20
2002,04,30,15,37,11.20
2002,04,30,15,38,11.20
2002,04,30,15,39,11.20
2002,04,30,15,40,11.20
2002,04,30,15,41,13.00
2002,04,30,15,42,16.20
2002,04,30,15,43,13.00
2002,04,30,15,44,11.20
2002,04,30,15,45,13.00
2002,04,30,15,46,9.70
2002,04,30,15,47,13.00
2002,04,30,15,48,13.00
2002,04,30,15,49,11.20
2002,04,30,15,50,13.00
2002,04,30,15,51,13.00
2002,04,30,15,52,13.00
2002,04,30,15,53,9.70
2002,04,30,15,54,13.00
2002,04,30,15,55,11.20
2002,04,30,15,56,9.70
2002,04,30,15,57,13.00
2002,04,30,15,58,11.20
2002,04,30,15,59,16.20
2002,04,30,16,00,13.00
2002,04,30,16,01,11.20
2002,04,30,16,02,9.70
2002,04,30,16,03,11.20
2002,04,30,16,04,7.90
2002,04,30,16,05,9.70
2002,04,30,16,06,9.70
2002,04,30,16,07,11.20
2002,04,30,16,08,9.70
2002,04,30,16,09,9.70
2002,04,30,16,10,9.70
2002,04,30,16,11,4.70
2002,04,30,16,12,7.90
2002,04,30,16,13,4.70
2002,04,30,16,14,4.70
2002,04,30,16,15,9.70
2002,04,30,16,16,7.90
2002,04,30,16,17,4.70
2002,04,30,16,18,4.70
2002,04,30,16,19,3.20
2002,04,30,16,20,7.90
2002,04,30,16,21,4.70
2002,04,30,16,22,7.90
2002,04,30,16,23,4.70
2002,04,30,16,24,7.90
2002,04,30,16,25,3.20
2002,04,30,16,26,4.70
2002,04,30,16,27,3.20
2002,04,30,16,28,3.20
2002,04,30,16,29,3.20
2002,04,30,16,30,4.70
2002,04,30,16,31,4.70
2002,04,30,16,32,4.70
2002,04,30,16,33,4.70
2002,04,30,16,34,7.90
2002,04,30,16,35,4.70
2002,04,30,16,36,3.20
2002,04,30,16,37,9.70
2002,04,30,16,38,9.70
2002,04,30,16,39,7.90
2002,04,30,16,40,3.20
2002,04,30,16,41,4.70
2002,04,30,16,42,3.20
2002,04,30,16,43,4.70
2002,04,30,16,44,7.90
2002,04,30,16,45,9.70
2002,04,30,16,46,9.70
2002,04,30,16,47,9.70
2002,04,30,16,48,9.70
2002,04,30,16,49,7.90
2002,04,30,16,50,7.90
2002,04,30,16,51,11.20
2002,04,30,16,52,9.70
2002,04,30,16,53,11.20
2002,04,30,16,54,9.70
2002,04,30,16,55,4.70
2002,04,30,16,56,7.90
2002,04,30,16,57,4.70
2002,04,30,16,58,11.20
2002,04,30,16,59,11.20
2002,04,30,17,00,13.00
2002,04,30,17,01,9.70
2002,04,30,17,02,7.90
2002,04,30,17,03,4.70
2002,04,30,17,04,4.70
2002,04,30,17,05,7.90
2002,04,30,17,06,4.70
2002,04,30,17,07,7.90
2002,04,30,17,08,11.20
2002,04,30,17,09,11.20
2002,04,30,17,10,16.20
2002,04,30,17,11,11.20
2002,04,30,17,12,11.20
2002,04,30,17,13,11.20
2002,04,30,17,14,11.20
2002,04,30,17,15,9.70
2002,04,30,17,16,9.70
2002,04,30,17,17,4.70
2002,04,30,17,18,4.70
2002,04,30,17,19,7.90
2002,04,30,17,20,3.20
2002,04,30,17,21,4.70
2002,04,30,17,22,7.90
2002,04,30,17,23,11.20
2002,04,30,17,24,13.00
2002,04,30,17,25,4.70
2002,04,30,17,26,4.70
2002,04,30,17,27,1.40
2002,04,30,17,28,3.20
2002,04,30,17,29,7.90
2002,04,30,17,30,7.90
2002,04,30,17,31,9.70
2002,04,30,17,32,9.70
2002,04,30,17,33,9.70
2002,04,30,17,34,4.70
2002,04,30,17,35,3.20
2002,04,30,17,36,4.70
2002,04,30,17,37,7.90
2002,04,30,17,38,4.70
2002,04,30,17,39,11.20
2002,04,30,17,40,7.90
2002,04,30,17,41,7.90
2002,04,30,17,42,9.70
2002,04,30,17,43,7.90
2002,04,30,17,44,7.90
2002,04,30,17,45,7.90
2002,04,30,17,46,11.20
2002,04,30,17,47,7.90
2002,04,30,17,48,7.90
2002,04,30,17,49,9.70
2002,04,30,17,50,7.90
2002,04,30,17,51,4.70
2002,04,30,17,52,4.70
2002,04,30,17,53,4.70
2002,04,30,17,54,4.70
2002,04,30,17,55,11.20
2002,04,30,17,56,7.90
2002,04,30,17,57,3.20
2002,04,30,17,58,4.70
2002,04,30,17,59,1.40
2002,04,30,18,00,1.40
2002,04,30,18,01,3.20
2002,04,30,18,02,3.20
2002,04,30,18,03,1.40
2002,04,30,18,04,0.00
2002,04,30,18,05,1.40
2002,04,30,18,06,3.20
2002,04,30,18,07,4.70
2002,04,30,18,08,9.70
2002,04,30,18,09,9.70
2002,04,30,18,10,11.20
2002,04,30,18,11,9.70
2002,04,30,18,12,9.70
2002,04,30,18,13,9.70
2002,04,30,18,14,7.90
2002,04,30,18,15,13.00
2002,04,30,18,16,11.20
2002,04,30,18,17,7.90
2002,04,30,18,18,11.20
2002,04,30,18,19,9.70
2002,04,30,18,20,7.90
2002,04,30,18,21,9.70
2002,04,30,18,22,7.90
2002,04,30,18,23,4.70
2002,04,30,18,24,7.90
2002,04,30,18,25,1.40
2002,04,30,18,26,4.70
2002,04,30,18,27,3.20
2002,04,30,18,28,1.40
2002,04,30,18,29,1.40
2002,04,30,18,30,3.20
2002,04,30,18,31,3.20
2002,04,30,18,32,1.40
2002,04,30,18,33,0.00
2002,04,30,18,34,0.00
2002,04,30,18,35,1.40
2002,04,30,18,36,1.40
2002,04,30,18,37,4.70
2002,04,30,18,38,3.20
2002,04,30,18,39,3.20
2002,04,30,18,40,4.70
2002,04,30,18,41,4.70
2002,04,30,18,42,4.70
2002,04,30,18,43,1.40
2002,04,30,18,44,3.20
2002,04,30,18,45,4.70
2002,04,30,18,46,3.20
2002,04,30,18,47,3.20
2002,04,30,18,48,4.70
2002,04,30,18,49,1.40
2002,04,30,18,50,4.70
2002,04,30,18,51,3.20
2002,04,30,18,52,3.20
2002,04,30,18,53,3.20
2002,04,30,18,54,3.20
2002,04,30,18,55,3.20
2002,04,30,18,56,3.20
2002,04,30,18,57,3.20
2002,04,30,18,58,4.70
2002,04,30,18,59,3.20
2002,04,30,19,00,7.90
2002,04,30,19,01,4.70
2002,04,30,19,02,3.20
2002,04,30,19,03,3.20
2002,04,30,19,04,3.20
2002,04,30,19,05,4.70
2002,04,30,19,06,4.70
2002,04,30,19,07,4.70
2002,04,30,19,08,4.70
2002,04,30,19,09,4.70
2002,04,30,19,10,4.70
2002,04,30,19,11,4.70